CW3699 Weather Reports


time (UTC)temp
C
wind
direction
speed
KPH
gust
KPH
rain 1hr
cm
rain 24hr
cm
rain mn
cm
humidity
%
barometer
mb
20260508014411 5 38 1.6 3.2 0.00 0.00 0.00 79 1011.4
20260508013410 5 81 0.0 3.2 0.00 0.00 0.00 78 1011.4
20260508012910 5 187 1.6 4.8 0.00 0.00 0.00 77 1011.3
20260508011409 5 179 1.6 4.8 0.00 0.00 0.00 75 1011.1
20260508010911 5 133 0.0 1.6 0.00 0.00 0.00 74 1011.1
20260508010412 5 161 0.0 1.6 0.00 0.00 0.00 73 1011.1
20260508005911 5 122 0.0 3.2 0.00 0.00 0.00 73 1011.0
20260508005411 6 275 0.0 1.6 0.00 0.00 0.00 73 1011.1
20260508004912 6 82 0.0 3.2 0.00 0.00 0.00 73 1010.9
20260508004411 6 223 0.0 1.6 0.00 0.00 0.00 74 1010.9
20260508003911 6 54 1.6 3.2 0.00 0.00 0.00 74 1010.9
20260508003411 6 179 1.6 3.2 0.00 0.00 0.00 75 1010.9
20260508002911 6 214 0.0 1.6 0.00 0.00 0.00 75 1010.9
20260508002410 6 240 0.0 3.2 0.00 0.00 0.00 76 1010.8
20260508001410 6 358 1.6 3.2 0.00 0.00 0.00 74 1010.7
20260508000911 6 354 1.6 3.2 0.00 0.00 0.00 75 1010.7
20260508000412 6 336 0.0 4.8 0.00 0.00 0.00 74 1010.7
20260507235910 6 268 1.6 4.8 0.00 0.00 0.00 73 1010.7
20260507235410 6 340 1.6 3.2 0.00 0.00 0.00 73 1010.7
20260507234912 6 319 1.6 3.2 0.00 0.00 0.00 73 1010.6
20260507234411 6 351 1.6 3.2 0.00 0.00 0.00 72 1010.6
20260507233912 6 16 1.6 3.2 0.00 0.00 0.00 71 1010.6
20260507233410 6 12 1.6 3.2 0.00 0.00 0.00 72 1010.6
20260507232911 6 2 1.6 3.2 0.00 0.00 0.00 72 1010.5
20260507232411 7 333 1.6 4.8 0.00 0.00 0.00 71 1010.6
20260507231910 7 343 1.6 4.8 0.00 0.00 0.00 73 1010.6
20260507231409 7 10 1.6 9.7 0.00 0.00 0.00 71 1010.6
20260507230911 7 34 1.6 3.2 0.00 0.00 0.00 73 1010.6
20260507230411 7 311 1.6 3.2 0.00 0.00 0.00 73 1010.6
20260507225409 7 344 1.6 4.8 0.00 0.00 0.00 72 1010.7
20260507224909 7 340 3.2 4.8 0.00 0.00 0.00 71 1010.7
20260507224411 7 346 1.6 4.8 0.00 0.00 0.00 70 1010.7
20260507223911 7 346 3.2 4.8 0.00 0.00 0.00 70 1010.7
20260507223411 7 334 3.2 4.8 0.00 0.00 0.00 70 1010.7
20260507222909 7 332 3.2 4.8 0.00 0.00 0.00 69 1010.7
20260507222411 7 338 3.2 4.8 0.00 0.00 0.00 67 1010.7
20260507221910 7 343 3.2 8.0 0.00 0.00 0.00 67 1010.7
20260507221409 7 339 3.2 8.0 0.00 0.00 0.00 66 1010.6
20260507220911 7 339 3.2 4.8 0.00 0.00 0.00 65 1010.6
20260507220411 7 359 3.2 8.0 0.00 0.00 0.00 66 1010.6
20260507215410 7 341 3.2 4.8 0.00 0.00 0.00 67 1010.6
20260507213910 7 342 3.2 8.0 0.00 0.00 0.00 66 1010.5
20260507213411 7 345 3.2 4.8 0.00 0.00 0.00 66 1010.5
20260507212911 7 337 3.2 4.8 0.00 0.00 0.00 65 1010.5
20260507211409 7 347 3.2 8.0 0.00 0.00 0.00 65 1010.5
20260507205911 7 328 3.2 4.8 0.00 0.00 0.00 63 1010.5
20260507205411 7 350 4.8 11.3 0.00 0.00 0.00 63 1010.5
20260507204913 8 358 3.2 12.9 0.00 0.00 0.00 62 1010.5
20260507204411 8 342 3.2 4.8 0.00 0.00 0.00 64 1010.5
20260507203910 8 343 3.2 4.8 0.00 0.00 0.00 63 1010.5
20260507202911 8 6 3.2 12.9 0.00 0.00 0.00 58 1010.4
20260507202411 8 357 3.2 9.7 0.00 0.00 0.00 54 1010.5
20260507201410 8 79 1.6 4.8 0.00 0.00 0.00 63 1010.5
20260507200910 8 21 3.2 4.8 0.00 0.00 0.00 61 1010.5
20260507200412 8 19 3.2 8.0 0.00 0.00 0.00 59 1010.5
20260507195910 8 88 3.2 11.3 0.00 0.00 0.00 61 1010.6
20260507195411 8 13 3.2 8.0 0.00 0.00 0.00 61 1010.6
20260507194911 8 3 3.2 9.7 0.00 0.00 0.00 61 1010.7
20260507194410 8 300 4.8 12.9 0.00 0.00 0.00 49 1010.6
20260507193910 8 310 6.4 12.9 0.00 0.00 0.00 50 1010.7
20260507193410 8 13 3.2 9.7 0.00 0.00 0.00 53 1010.7
20260507192910 8 338 4.8 14.5 0.00 0.00 0.00 53 1010.8
20260507192411 8 263 1.6 8.0 0.00 0.00 0.00 55 1010.9
20260507191910 8 233 8.0 27.4 0.00 0.00 0.00 55 1010.8
20260507190911 7 171 1.6 4.8 0.00 0.00 0.00 63 1011.1
20260507190410 7 9 3.2 8.0 0.00 0.00 0.00 67 1011.1
20260507185910 7 51 1.6 4.8 0.00 0.00 0.00 66 1011.1
20260507184911 7 9 3.2 8.0 0.00 0.00 0.00 67 1011.1
20260507184411 7 349 3.2 9.7 0.00 0.00 0.00 68 1011.1
20260507183910 7 0 3.2 4.8 0.00 0.00 0.00 69 1011.2
20260507183411 7 5 4.8 9.7 0.00 0.00 0.00 69 1011.2
20260507182911 7 6 3.2 11.3 0.00 0.00 0.00 70 1011.3
20260507182409 7 356 6.4 11.3 0.00 0.00 0.00 70 1011.4
20260507181911 7 358 4.8 11.3 0.00 0.00 0.00 71 1011.4
20260507180910 7 356 6.4 12.9 0.00 0.00 0.00 69 1011.4
20260507180413 7 0 4.8 14.5 0.00 0.00 0.00 68 1011.5
20260507175911 7 15 4.8 9.7 0.00 0.00 0.00 69 1011.6
20260507175411 7 3 3.2 8.0 0.00 0.00 0.00 69 1011.7
20260507174910 7 20 4.8 11.3 0.00 0.00 0.00 68 1011.7
20260507174411 7 50 3.2 4.8 0.00 0.00 0.00 67 1011.8
20260507173411 7 18 3.2 8.0 0.00 0.00 0.00 68 1011.9
20260507172910 7 12 3.2 9.7 0.00 0.00 0.00 69 1011.9
20260507172410 7 328 3.2 11.3 0.00 0.00 0.00 68 1012.0
20260507171910 6 281 1.6 11.3 0.00 0.00 0.00 69 1012.0
20260507164910 6 22 1.6 4.8 0.00 0.00 0.00 72 1012.3
20260507164410 6 4 3.2 4.8 0.00 0.00 0.00 72 1012.4
20260507163909 6 356 1.6 4.8 0.00 0.00 0.00 72 1012.4
20260507163412 6 32 3.2 8.0 0.00 0.00 0.00 73 1012.5
20260507162910 6 319 3.2 4.8 0.00 0.00 0.00 75 1012.5
20260507162410 6 42 1.6 4.8 0.00 0.00 0.00 75 1012.5
20260507161910 6 346 1.6 4.8 0.00 0.00 0.00 71 1012.5
20260507161410 6 338 1.6 9.7 0.00 0.00 0.00 71 1012.6
20260507160910 6 22 3.2 4.8 0.00 0.00 0.00 72 1012.6
20260507160410 6 25 3.2 4.8 0.00 0.00 0.00 70 1012.7
20260507155911 6 345 1.6 8.0 0.00 0.00 0.00 68 1012.6
20260507155410 6 336 4.8 9.7 0.00 0.00 0.00 67 1012.7
20260507154909 6 352 4.8 9.7 0.00 0.00 0.00 66 1012.7
20260507154410 7 349 4.8 9.7 0.00 0.00 0.00 66 1012.6
20260507153911 7 346 6.4 11.3 0.00 0.00 0.00 65 1012.7
20260507153410 7 345 4.8 9.7 0.00 0.00 0.00 66 1012.7
20260507152910 7 349 4.8 9.7 0.00 0.00 0.00 65 1012.7
20260507152410 7 280 3.2 8.0 0.00 0.00 0.00 65 1012.7
20260507151910 6 341 1.6 4.8 0.00 0.00 0.00 65 1012.7
20260507151410 6 28 1.6 8.0 0.00 0.00 0.00 67 1012.7
20260507150910 6 9 3.2 8.0 0.00 0.00 0.00 67 1012.7
20260507150410 6 316 3.2 8.0 0.00 0.00 0.00 66 1012.7
20260507145910 6 20 1.6 4.8 0.00 0.00 0.00 67 1012.7
20260507145409 6 345 3.2 4.8 0.00 0.00 0.00 66 1012.7
20260507144911 6 14 3.2 8.0 0.00 0.00 0.00 64 1012.6
20260507144410 6 353 3.2 4.8 0.00 0.00 0.00 65 1012.6
20260507143910 6 321 1.6 4.8 0.00 0.00 0.00 64 1012.6
20260507143410 6 253 3.2 9.7 0.00 0.00 0.00 62 1012.6
20260507142909 6 239 1.6 4.8 0.00 0.00 0.00 64 1012.7
20260507142410 6 242 3.2 11.3 0.00 0.00 0.00 65 1012.7
20260507141910 6 41 3.2 4.8 0.00 0.00 0.00 66 1012.7
20260507141409 6 246 3.2 11.3 0.00 0.00 0.00 66 1012.8
20260507140411 6 19 4.8 11.3 0.00 0.00 0.00 66 1012.8
20260507135910 6 254 3.2 9.7 0.00 0.00 0.00 68 1012.8
20260507134910 6 261 3.2 9.7 0.00 0.00 0.00 70 1012.8
20260507134410 5 326 3.2 8.0 0.00 0.00 0.00 72 1012.8
20260507133910 5 206 1.6 4.8 0.00 0.00 0.00 72 1012.7
20260507133409 5 267 1.6 9.7 0.00 0.00 0.00 73 1012.7
20260507132909 5 294 1.6 4.8 0.00 0.00 0.00 74 1012.8
20260507132410 5 175 3.2 9.7 0.00 0.00 0.00 73 1012.8
20260507131915 5 229 3.2 9.7 0.00 0.00 0.00 74 1012.7
20260507130910 5 174 4.8 11.3 0.00 0.00 0.00 76 1012.7
20260507130410 5 266 3.2 8.0 0.00 0.00 0.00 78 1012.8
20260507125909 4 143 3.2 12.9 0.00 0.00 0.00 77 1012.7
20260507125409 4 223 6.4 11.3 0.00 0.00 0.00 78 1012.7
20260507124910 4 220 1.6 8.0 0.00 0.00 0.00 79 1012.7
20260507124409 3 220 3.2 11.3 0.00 0.00 0.00 80 1012.6
20260507123909 3 153 4.8 8.0 0.00 0.00 0.00 82 1012.6
20260507123409 3 208 3.2 8.0 0.00 0.00 0.00 84 1012.6
20260507122910 3 267 1.6 4.8 0.00 0.00 0.00 85 1012.6
20260507120910 1 244 3.2 4.8 0.00 0.00 0.00 92 1012.5
20260507120410 1 225 3.2 4.8 0.00 0.00 0.00 92 1012.5
20260507115909 1 191 3.2 4.8 0.00 0.00 0.00 93 1012.5
20260507115410 0 236 3.2 4.8 0.00 0.00 0.00 93 1012.5
20260507114910 0 167 1.6 4.8 0.00 0.00 0.00 93 1012.5
20260507114409 0 185 3.2 4.8 0.00 0.00 0.00 93 1012.4
20260507113910 0 173 1.6 4.8 0.00 0.00 0.00 93 1012.4
20260507113410 0 185 1.6 4.8 0.00 0.00 0.00 92 1012.4
20260507112910 0 192 1.6 4.8 0.00 0.00 0.00 92 1012.4
20260507112410 0 167 1.6 4.8 0.00 0.00 0.00 93 1012.4
20260507111910 0 163 1.6 3.2 0.00 0.00 0.00 93 1012.3
20260507111410 -1 179 1.6 4.8 0.00 0.00 0.00 93 1012.3
20260507110910 -1 175 3.2 4.8 0.00 0.00 0.00 93 1012.3
20260507110410 -1 192 3.2 4.8 0.00 0.00 0.00 92 1012.3
20260507104909 -1 165 3.2 4.8 0.00 0.00 0.00 91 1012.3
20260507104410 -1 180 3.2 4.8 0.00 0.00 0.00 92 1012.2
20260507103910 -1 164 3.2 4.8 0.00 0.00 0.00 91 1012.3
20260507103410 -1 166 3.2 4.8 0.00 0.00 0.00 91 1012.2
20260507102910 -1 166 3.2 4.8 0.00 0.00 0.00 91 1012.3
20260507102410 -1 185 3.2 4.8 0.00 0.00 0.00 91 1012.3
20260507101409 -1 175 3.2 4.8 0.00 0.00 0.00 90 1012.2
20260507100909 -1 193 1.6 4.8 0.00 0.00 0.00 90 1012.3
20260507100409 -1 187 3.2 4.8 0.00 0.00 0.00 90 1012.2
20260507095910 -1 176 3.2 4.8 0.00 0.00 0.00 90 1012.3
20260507095410 -1 174 3.2 4.8 0.00 0.00 0.00 90 1012.3
20260507094909 -1 164 3.2 4.8 0.00 0.00 0.00 89 1012.4
20260507093909 0 167 1.6 3.2 0.00 0.00 0.00 89 1012.4
20260507093410 0 176 3.2 4.8 0.00 0.00 0.00 89 1012.3
20260507092910 0 166 3.2 3.2 0.00 0.00 0.00 89 1012.3
20260507092409 0 169 1.6 3.2 0.00 0.00 0.00 90 1012.4
20260507091910 0 164 1.6 3.2 0.00 0.00 0.00 90 1012.5
20260507091409 0 187 1.6 3.2 0.00 0.00 0.00 90 1012.4
20260507090910 0 176 1.6 3.2 0.00 0.00 0.00 90 1012.5
20260507090409 0 173 1.6 3.2 0.00 0.00 0.00 90 1012.5
20260507085910 0 194 1.6 3.2 0.00 0.00 0.00 90 1012.5
20260507085410 0 163 1.6 3.2 0.00 0.00 0.00 91 1012.6
20260507084909 0 153 1.6 3.2 0.00 0.00 0.00 91 1012.6
20260507084410 0 166 1.6 3.2 0.00 0.00 0.00 91 1012.7
20260507083910 0 167 1.6 3.2 0.00 0.00 0.00 91 1012.6
20260507083410 0 172 1.6 4.8 0.00 0.00 0.00 91 1012.6
20260507082910 0 178 1.6 3.2 0.00 0.00 0.00 90 1012.6
20260507082410 0 161 1.6 3.2 0.00 0.00 0.00 90 1012.7
20260507081909 0 188 1.6 3.2 0.00 0.00 0.00 90 1012.8
20260507081409 0 184 1.6 3.2 0.00 0.00 0.00 90 1012.7
20260507080909 0 167 1.6 3.2 0.00 0.00 0.00 90 1012.8
20260507080410 0 164 1.6 3.2 0.00 0.00 0.00 90 1012.7
20260507075909 0 178 1.6 3.2 0.00 0.00 0.00 90 1012.7
20260507075409 0 161 3.2 3.2 0.00 0.00 0.00 89 1012.7
20260507074909 0 167 1.6 4.8 0.00 0.00 0.00 89 1012.8
20260507074410 0 181 1.6 4.8 0.00 0.00 0.00 88 1012.8
20260507073909 0 176 3.2 4.8 0.00 0.00 0.00 88 1012.9
20260507073409 0 184 1.6 4.8 0.00 0.00 0.00 87 1012.9
20260507072909 0 175 3.2 4.8 0.00 0.00 0.00 87 1012.9
20260507072409 0 179 3.2 4.8 0.00 0.00 0.00 87 1012.9
20260507071909 0 174 1.6 3.2 0.00 0.00 0.00 87 1012.9
20260507071409 0 175 1.6 3.2 0.00 0.00 0.00 86 1013.0
20260507070909 0 164 1.6 3.2 0.00 0.00 0.00 86 1013.0
20260507070409 0 164 1.6 3.2 0.00 0.00 0.00 86 1013.1
20260507065410 0 162 1.6 4.8 0.00 0.00 0.00 85 1013.2
20260507064909 0 187 1.6 4.8 0.00 0.00 0.00 84 1013.1
20260507063910 0 172 1.6 4.8 0.00 0.00 0.00 84 1013.2
20260507063410 0 155 3.2 4.8 0.00 0.00 0.00 83 1013.2
20260507062410 1 166 1.6 3.2 0.00 0.00 0.00 83 1013.2
20260507061909 1 173 1.6 3.2 0.00 0.00 0.00 82 1013.2
20260507061408 1 172 1.6 4.8 0.00 0.00 0.00 81 1013.2
20260507060910 1 172 1.6 3.2 0.00 0.00 0.00 81 1013.3
20260507060410 1 188 3.2 4.8 0.00 0.00 0.00 81 1013.3
20260507055911 1 177 3.2 4.8 0.00 0.00 0.00 80 1013.3
20260507055410 2 176 1.6 4.8 0.00 0.00 0.00 80 1013.3
20260507054909 2 171 1.6 4.8 0.00 0.00 0.00 79 1013.3
20260507053909 2 159 3.2 4.8 0.00 0.00 0.00 77 1013.3
20260507053409 2 168 1.6 4.8 0.00 0.00 0.00 77 1013.4
20260507052910 2 177 1.6 4.8 0.00 0.00 0.00 77 1013.4
20260507051409 3 168 1.6 4.8 0.00 0.00 0.00 76 1013.5
20260507050909 3 197 1.6 4.8 0.00 0.00 0.00 76 1013.6
20260507045909 3 209 1.6 4.8 0.00 0.00 0.00 75 1013.6
20260507045409 3 184 1.6 4.8 0.00 0.00 0.00 75 1013.6
20260507044909 3 179 1.6 4.8 0.00 0.00 0.00 75 1013.6
20260507043910 3 162 3.2 12.9 0.00 0.00 0.00 76 1013.6
20260507043410 3 203 1.6 9.7 0.00 0.00 0.00 76 1013.7
20260507042909 3 6 1.6 4.8 0.00 0.00 0.00 76 1013.7
20260507042409 4 174 1.6 4.8 0.00 0.00 0.00 77 1013.8
20260507041910 4 268 3.2 8.0 0.00 0.00 0.00 77 1013.7
20260507040909 3 353 3.2 9.7 0.00 0.00 0.00 77 1013.7
20260507040409 3 302 3.2 4.8 0.00 0.00 0.00 77 1013.7
20260507035910 3 259 3.2 8.0 0.00 0.00 0.00 79 1013.7
20260507035410 3 239 1.6 4.8 0.00 0.00 0.00 78 1013.7
20260507034909 3 277 1.6 4.8 0.00 0.00 0.00 78 1013.7
20260507034410 3 277 1.6 3.2 0.00 0.00 0.00 76 1013.9
20260507033909 3 314 1.6 4.8 0.00 0.00 0.00 75 1013.9
20260507033409 3 272 3.2 4.8 0.00 0.00 0.00 74 1013.8
20260507031909 3 264 1.6 4.8 0.00 0.00 0.00 72 1013.7
20260507031409 4 270 1.6 4.8 0.00 0.00 0.00 72 1013.6
20260507030909 4 295 3.2 8.0 0.00 0.00 0.00 71 1013.6
20260507030409 4 105 1.6 4.8 0.00 0.00 0.00 71 1013.7
20260507025909 4 357 1.6 12.9 0.00 0.00 0.00 71 1013.7
20260507025409 4 270 1.6 4.8 0.00 0.00 0.00 72 1013.7
20260507024909 4 254 3.2 8.0 0.00 0.00 0.00 72 1013.6
20260507024410 5 298 1.6 8.0 0.00 0.00 0.00 73 1013.6
20260507023909 5 0 3.2 4.8 0.00 0.00 0.00 71 1013.7
20260507023408 5 48 3.2 4.8 0.00 0.00 0.00 70 1013.7
20260507021409 5 282 1.6 11.3 0.00 0.00 0.00 70 1013.6
20260507020909 5 354 3.2 9.7 0.00 0.00 0.00 70 1013.6
20260507020410 5 244 1.6 8.0 0.00 0.00 0.00 70 1013.5
20260507015909 5 4 1.6 4.8 0.00 0.00 0.00 69 1013.6